Simultaneous Nadir Overpasses (SNOs) Predictions

Prediction of SNOs between AQUA and NOAA-19 Satellite Orbit:

Table of predicted SNOs for the next 14.0 days since TLE Epoch: 4/6/2018
Index Date (AQUA) Time (AQUA) Lat,Lon (AQUA) SZA (AQUA ) Date (NOAA-19) Time (NOAA-19) Lat,Lon (NOAA-19) SZA (NOAA-19 ) Distance(km) Time Diff (sec)
1 04/08/2018 15:46:44 80.83, -95.33 75.55 04/08/2018 15:46:46 80.84, -95.36 75.56 1.05 2
2 04/10/2018 21:20:28 -80.82, 1.37 105.32 04/10/2018 21:20:19 -80.84, 1.29 105.29 2.57 9
3 04/13/2018 02:54:13 80.84, 97.76 73.89 04/13/2018 02:54:02 80.84, 97.66 73.90 1.67 11
4 04/15/2018 08:27:57 -80.83,-165.61 106.94 04/15/2018 08:27:35 -80.84,-165.52 106.93 1.71 22
5 04/15/2018 09:17:21 80.76, 2.93 72.90 04/15/2018 09:18:31 80.89, 4.93 72.78 38.24 70
6 04/17/2018 14:01:42 80.85, -69.26 72.30 04/17/2018 14:01:17 80.83, -69.13 72.29 2.98 25
7 04/17/2018 14:51:08 -80.84, 98.51 107.74 04/17/2018 14:52:13 -80.84, 98.50 107.76 0.24 65
8 04/19/2018 19:35:25 -80.82, 27.63 108.54 04/19/2018 19:34:51 -80.83, 27.56 108.51 1.82 34




NCC Satellite Simultaneous Nadir Overpasses (SNOs) Prediction Service
